Bowling Green, KY

4:01 PM CDT on September 27, 2016 (GMT -0500)
Bowling Green-Warren County Regional

Weather History for KBWG - November, 2013

Change the Weather History Date:

Monday, November 25, 2013

  Actual Average Record
Temperature  
Mean Temperature 35 °F 45 °F  
Max Temperature 44 °F 55 °F 74 °F (1896)
Min Temperature 26 °F 35 °F -7 °F (1950)
Degree Days  
Heating Degree Days 30 20  
Month to date heating degree days 469 393  
Since 1 July heating degree days 719 656  
Cooling Degree Days 0 0  
Month to date cooling degree days 0 0  
Year to date cooling degree days 1499 1488  
Moisture  
Dew Point 25 °F    
Average Humidity 64    
Maximum Humidity 100    
Minimum Humidity 27    
Precipitation  
Precipitation 0.12 in 0.15 in 1.60 in (1964)
Month to date precipitation 2.75 3.43  
Year to date precipitation 54.58 44.30  
Snow  
Snow 1.10 in 0.00 in 1.20 in (1903)
Month to date snowfall 1.1 0.0  
Since 1 July snowfall 1.1 T  
Since 1 September snowfall 1.1 T  
Snow Depth 0.00 in    
Sea Level Pressure  
Sea Level Pressure 30.33 in    
Wind  
Wind Speed 5 mph (SSE)    
Max Wind Speed 15 mph    
Max Gust Speed 21 mph    
Visibility 5 miles    
Events Fog , Snow    
T = Trace of Precipitation, MM = Missing Value Source: NWS Daily Summary

Daily Weather History Graph

Daily Weather History Graph

Search for Another Location

Airport or City:

Trip Planner

Search our weather history database for the weather conditions in past years. The results will help you decide how hot, cold, wet, or windy it might be!

Date:

Astronomy

Nov. 25, 2013 Rise Set
Actual Time 6:34 AM CST 4:30 PM CST
Civil Twilight 6:06 AM CST 4:58 PM CST
Nautical Twilight 5:34 AM CST 5:30 PM CST
Astronomical Twilight 5:03 AM CST 6:01 PM CST
Moon 11:48 PM CST (11/25) 11:57 AM CST (11/25)
Length of Visible Light 10h 52m
Length of Day
9h 56m
Waning Gibbous, 51% of the Moon is Illuminated
Nov 25
Waning Gibbous
Nov 25
Last Quarter
Dec 2
New
Dec 9
First Quarter
Dec 17
Full

Hourly Weather History & Observations

Time (CST) Temp. Windchill Dew Point Humidity Pressure Visibility Wind Dir Wind Speed Gust Speed Precip Events Conditions
12:53 AM 27.0 °F 19.5 °F 12.9 °F 56% 30.49 in 10.0 mi East 6.9 mph - N/A   Clear
1:53 AM 27.0 °F 20.5 °F 12.9 °F 56% 30.47 in 10.0 mi East 5.8 mph - N/A   Clear
2:53 AM 28.0 °F 22.8 °F 12.9 °F 53% 30.45 in 10.0 mi East 4.6 mph - N/A   Clear
3:53 AM 28.0 °F 24.2 °F 12.9 °F 53% 30.45 in 10.0 mi ENE 3.5 mph - N/A   Clear
4:53 AM 28.0 °F 21.7 °F 14.0 °F 56% 30.43 in 10.0 mi ESE 5.8 mph - N/A   Clear
5:53 AM 28.9 °F 23.9 °F 14.0 °F 54% 30.43 in 10.0 mi ESE 4.6 mph - N/A   Clear
6:53 AM 28.9 °F 23.9 °F 14.0 °F 54% 30.42 in 10.0 mi East 4.6 mph - N/A   Mostly Cloudy
7:53 AM 30.0 °F 26.5 °F 15.1 °F 54% 30.42 in 10.0 mi SE 3.5 mph - N/A   Overcast
8:53 AM 32.0 °F 28.7 °F 15.1 °F 50% 30.41 in 10.0 mi SSE 3.5 mph - N/A   Overcast
9:53 AM 37.0 °F 33.3 °F 16.0 °F 42% 30.41 in 10.0 mi SW 4.6 mph - N/A   Mostly Cloudy
10:53 AM 39.9 °F 33.9 °F 15.1 °F 36% 30.37 in 10.0 mi South 9.2 mph - N/A   Overcast
11:53 AM 42.1 °F 36.6 °F 14.0 °F 32% 30.35 in 10.0 mi SSW 9.2 mph - N/A   Overcast
12:53 PM 44.1 °F 38.1 °F 12.9 °F 28% 30.32 in 10.0 mi SW 11.5 mph - N/A   Overcast
1:53 PM 43.0 °F 37.7 °F 14.0 °F 31% 30.30 in 10.0 mi SSW 9.2 mph - N/A   Overcast
2:53 PM 42.1 °F 36.6 °F 15.1 °F 34% 30.31 in 10.0 mi South 9.2 mph - N/A   Overcast
3:34 PM 37.4 °F 29.8 °F 26.6 °F 65% 30.33 in 2.5 mi WSW 11.5 mph - 0.00 in Snow Light Snow
3:37 PM 35.6 °F 28.0 °F 26.6 °F 70% 30.33 in 1.2 mi WSW 10.4 mph - 0.00 in Snow Light Snow
3:53 PM 33.1 °F 26.1 °F 28.9 °F 85% 30.34 in 0.8 mi SW 8.1 mph - 0.00 in Snow Light Snow
4:08 PM 33.8 °F 28.6 °F 30.2 °F 87% 30.31 in 0.5 mi SW 5.8 mph - 0.01 in Fog , Snow Snow
4:20 PM 32.0 °F 27.5 °F 30.2 °F 93% 30.30 in 0.5 mi SSW 4.6 mph - 0.03 in Fog , Snow Snow
4:32 PM 32.0 °F 27.5 °F 30.2 °F 93% 30.29 in 1.0 mi South 4.6 mph - 0.04 in Snow Light Snow
4:42 PM 32.0 °F 28.7 °F 30.2 °F 93% 30.29 in 0.8 mi South 3.5 mph - 0.06 in Snow Light Snow
4:47 PM 32.0 °F 28.7 °F 30.2 °F 93% 30.29 in 1.0 mi SSE 3.5 mph - 0.06 in Snow Light Snow
4:53 PM 32.0 °F 28.7 °F 30.9 °F 96% 30.31 in 1.0 mi SSE 3.5 mph - 0.07 in Snow Light Snow
5:25 PM 32.0 °F 28.7 °F 30.2 °F 93% 30.28 in 1.2 mi NNE 3.5 mph - 0.02 in Snow Light Snow
5:40 PM 32.0 °F - 32.0 °F 100% 30.29 in 1.8 mi Calm Calm - 0.03 in Snow Light Snow
5:42 PM 32.0 °F - 30.2 °F 93% 30.29 in 2.0 mi Calm Calm - 0.03 in Snow Light Snow
5:53 PM 32.0 °F - 30.9 °F 96% 30.32 in 2.5 mi Calm Calm - 0.03 in Snow Light Snow
6:06 PM 32.0 °F - 32.0 °F 100% 30.31 in 1.8 mi Calm Calm - 0.01 in Snow Light Snow
6:09 PM 32.0 °F - 30.2 °F 93% 30.31 in 1.8 mi Calm Calm - 0.01 in Snow Light Snow
6:18 PM 32.0 °F 28.7 °F 32.0 °F 100% 30.30 in 2.5 mi South 3.5 mph - 0.01 in Snow Light Snow
6:31 PM 32.0 °F 28.7 °F 30.2 °F 93% 30.30 in 1.8 mi South 3.5 mph - 0.02 in Snow Light Snow
6:38 PM 32.0 °F 27.5 °F 30.2 °F 93% 30.29 in 2.5 mi SSE 4.6 mph - 0.02 in Snow Light Snow
6:47 PM 32.0 °F 28.7 °F 30.2 °F 93% 30.30 in 3.0 mi SSE 3.5 mph - 0.02 in Snow Light Snow
6:48 PM 32.0 °F - 30.9 °F 96% 30.32 in 4.0 mi Calm Calm - 0.02 in Snow Light Snow
6:58 PM 32.0 °F 28.7 °F 30.2 °F 93% 30.30 in 6.0 mi SSE 3.5 mph - 0.00 in   Overcast
7:53 PM 32.0 °F 28.7 °F 30.9 °F 96% 30.29 in 5.0 mi East 3.5 mph - 0.00 in   Overcast
8:22 PM 32.0 °F 27.5 °F 30.2 °F 93% 30.25 in 5.0 mi East 4.6 mph - N/A   Overcast
8:53 PM 32.0 °F 28.7 °F 32.0 °F 100% 30.27 in 6.0 mi East 3.5 mph - N/A   Overcast
9:01 PM 33.8 °F - 32.0 °F 93% 30.25 in 6.0 mi Calm Calm - N/A   Overcast
9:53 PM 33.1 °F - 30.9 °F 92% 30.24 in 6.0 mi Calm Calm - N/A   Overcast
10:53 PM 33.1 °F - 32.0 °F 96% 30.24 in 6.0 mi Calm Calm - N/A   Overcast
11:07 PM 33.8 °F - 32.0 °F 93% 30.23 in 6.0 mi Calm Calm - N/A   Overcast
11:38 PM 33.8 °F - 32.0 °F 93% 30.22 in 6.0 mi Calm Calm - N/A   Mostly Cloudy
11:53 PM 33.1 °F - 30.9 °F 92% 30.22 in 5.0 mi Calm Calm - N/A   Overcast